Weather History for Cape Girardeau, MO

Change the Weather History Date:

Friday, March 15, 2013

  Actual Average Record
Temperature  
Mean Temperature 52 °F 47 °F  
Max Temperature 74 °F 58 °F 79 °F (1977)
Min Temperature 29 °F 36 °F 13 °F (1999)
Degree Days  
Heating Degree Days 13 18  
Month to date heating degree days 363 308  
Since 1 July heating degree days 3602 3805  
Cooling Degree Days 0 0  
Month to date cooling degree days 0 0  
Year to date cooling degree days 0 0  
Growing Degree Days 2 (Base 50)    
Moisture  
Dew Point 41 °F    
Average Humidity 68    
Maximum Humidity 92    
Minimum Humidity 44    
Precipitation  
Precipitation 0.00 in 0.14 in 0.81 in (2002)
Month to date precipitation 0.36 1.95  
Year to date precipitation 6.98 8.83  
Sea Level Pressure  
Sea Level Pressure 29.93 in    
Wind  
Wind Speed 8 mph (South)    
Max Wind Speed 23 mph    
Max Gust Speed 30 mph    
Visibility 10 miles    
Events      
T = Trace of Precipitation, MM = Missing Value Source: NWS Daily Summary

Daily Weather History Graph

Daily Weather History Graph

Search for Another Location

Airport:

Trip Planner

Search our weather history database for the weather conditions in past years. The results will help you decide how hot, cold, wet, or windy it might be!

Date:

Astronomy

Mar. 15, 2013 Rise Set
Actual Time 7:08 AM CDT 7:05 PM CDT
Civil Twilight 6:42 AM CDT 7:31 PM CDT
Nautical Twilight 6:12 AM CDT 8:02 PM CDT
Astronomical Twilight 5:42 AM CDT 8:32 PM CDT
Moon 9:04 AM CDT (3/15) 11:13 PM CDT (3/15)
Length of Visible Light 12h 48m
Length of Day
11h 56m
Waxing Crescent, 15% of the Moon is Illuminated
Mar 15
Waxing Crescent
Mar 19
First Quarter
Mar 27
Full
Apr 2
Last Quarter
Apr 10
New

Hourly Weather History & Observations

Time (CDT) Temp. Windchill Dew Point Humidity Pressure Visibility Wind Dir Wind Speed Gust Speed Precip Events Conditions
12:53 AM 39.0 °F - 28.9 °F 67% 30.11 in 10.0 mi Calm Calm - N/A   Clear
1:53 AM 35.1 °F 32.2 °F 28.0 °F 76% 30.10 in 10.0 mi East 3.5 mph - N/A   Clear
2:53 AM 34.0 °F 31.0 °F 28.0 °F 79% 30.08 in 10.0 mi ESE 3.5 mph - N/A   Clear
3:53 AM 30.2 °F - 28.4 °F 93% 30.05 in 10.0 mi Calm Calm - N/A   Clear
4:53 AM 30.9 °F - 27.0 °F 85% 30.04 in 10.0 mi Calm Calm - N/A   Clear
5:53 AM 30.9 °F - 28.0 °F 89% 30.04 in 10.0 mi Calm Calm - N/A   Clear
6:53 AM 30.9 °F - 27.0 °F 85% 30.02 in 10.0 mi Calm Calm - N/A   Clear
7:53 AM 32.0 °F - 30.0 °F 92% 30.03 in 7.0 mi Calm Calm - N/A   Clear
8:53 AM 37.0 °F - 33.1 °F 86% 30.02 in 10.0 mi Calm Calm - N/A   Clear
9:53 AM 46.9 °F - 39.0 °F 74% 30.01 in 10.0 mi Calm Calm - N/A   Clear
10:53 AM 57.0 °F - 42.1 °F 57% 29.99 in 10.0 mi WSW 10.4 mph - N/A   Clear
11:53 AM 61.0 °F - 43.0 °F 52% 29.96 in 10.0 mi Calm Calm - N/A   Clear
12:53 PM 66.9 °F - 46.9 °F 49% 29.94 in 10.0 mi South 6.9 mph - N/A   Clear
1:53 PM 70.0 °F - 46.9 °F 44% 29.91 in 10.0 mi South 6.9 mph - N/A   Clear
2:53 PM 70.0 °F - 48.9 °F 47% 29.88 in 10.0 mi South 9.2 mph - N/A   Clear
3:53 PM 70.0 °F - 51.1 °F 51% 29.85 in 10.0 mi SSW 8.1 mph - N/A   Clear
4:53 PM 73.9 °F - 51.1 °F 45% 29.81 in 10.0 mi South 16.1 mph 20.7 mph N/A   Clear
5:53 PM 71.1 °F - 51.1 °F 49% 29.79 in 10.0 mi SSW 15.0 mph 24.2 mph N/A   Clear
6:53 PM 70.0 °F - 51.1 °F 51% 29.78 in 10.0 mi SSW 16.1 mph 25.3 mph N/A   Clear
7:53 PM 68.0 °F - 52.0 °F 56% 29.77 in 10.0 mi SSW 15.0 mph 24.2 mph N/A   Clear
8:53 PM 66.9 °F - 51.1 °F 57% 29.76 in 10.0 mi SSW 19.6 mph 29.9 mph N/A   Clear
9:53 PM 64.9 °F - 50.0 °F 58% 29.77 in 10.0 mi SSW 16.1 mph - N/A   Clear
10:53 PM 63.0 °F - 50.0 °F 63% 29.77 in 10.0 mi SSW 12.7 mph - N/A   Clear
11:53 PM 62.1 °F - 50.0 °F 65% 29.77 in 10.0 mi SSW 11.5 mph - N/A   Clear